Torna al catalogo

STARLINK-36968

AttivoComunicazioniVLEO
NORAD 67995·PAYLOAD·🇺🇸 United States

Lanciato Feb 27, 2026 da Vandenberg Space Force Base

Loading…

Prossimi Passaggi (prossime 24 ore)

TLE

AggiornatoSource: CelesTrak SupGP

Epoca: Sep 14, 2026, 23:20 UTC

1 67995C 26039K   26257.97270833  .00046222  00000+0  16741-2 0  2570
2 67995  43.0038  59.7384 0001500 272.0988 122.4651 15.27557646    14

Traccia STARLINK-36968 in tempo reale con AllMySat

Download on the App Store